Tracking 19170 objects as of 23-May-2018
HD Live streaming from Space Station
objects crossing your sky now

NOAA 16 DEB

Track NOAA 16 DEB now!
10-day predictions


NORAD ID: 41221
Int'l Code: 2000-055EA
Perigee: 771.7 km
Apogee: 855.0 km
Inclination: 98.9 °
Period: 101.0 minutes
Semi major axis: 7184 km
RCS: Unknown
Launch date: September 21, 2000
Source: United States (US)
Launch site: AIR FORCE WESTERN TEST RANGE (AFWTR)

Note: This is SATELLITE DEBRIS
aabbcc
Your satellite tracking list
Your tracking list is empty




NASA's NSSDC Master Catalog

Two Line Element Set (TLE):
1 41221U 00055EA  18142.77432688  .00002293  00000-0  96859-3 0  9997
2 41221  98.8950 237.7683 0057943  30.2299 330.2202 14.25680773127173
Source of the keplerian elements: AFSPC